Weather in Koza

Russia / Yaroslavl Oblast     58°27′16″N   39°55′54″E
temp.,
°C
wind,
m/s
gust,
m/s
humid.,
%
clouds,
%
prec.,
mm/h
press.,
hPa
HPBL,
m
3 march, wed
wed300:00−6nw4139168 0.0 1008657
03:00−8nw4119375 0.0 1010426
06:00−7nw51192100 0.1 1010577
09:00−8wnw4119298 0.1 1010509
12:00−4w599291 0.1 1009564
15:00−1w5109095 0.2 1007997
18:00−1w51190100 0.1 1004997
21:00−2w51294100 0.4 1002882
4 march, thu
thu400:00−2wsw61394100 0.7 998895
03:00−1w51190100 0.8 995914
06:00−3w5128481 0.9 992958
09:00−5wnw7148782 0.9 994974
12:00−3wnw61090100 0.3 996865
15:00−3nnw4786100 1.0 998849
18:00−8nnw239186 0.1 99927
21:00−10nw229788 0.1 100137
5 march, fri
fri500:00−13nw229756 0.0 100220
03:00−14wnw229761 0.1 100321
06:00−15wnw229758 0.0 100420
09:00−13wnw249445 0.0 1005151
12:00−7wnw249093 0.0 1005408
15:00−6wnw248696 0.1 1007744
18:00−9w239498 0.1 100833
21:00−11nw249698 0.3 1010106
6 march, sat
sat600:00−13nnw2596100 0.0 1012146
03:00−17nnw239793 0.1 101462
06:00−19nw23980 0.0 101455
09:00−17wnw25930 0.0 1014189
12:00−12w359087 0.0 1014423
15:00−10w468993 0.1 1013602
18:00−13wsw2397100 0.1 101277
21:00−14sw259887 0.1 101196
7 march, sun
sun700:00−12ssw4109499 0.0 1007272
03:00−10ssw51394100 0.2 1002685
06:00−8ssw61393100 0.9 995945
09:00−6ssw61393100 2.9 990956
12:00−4w71194100 2.9 988968
15:00−6wnw5970100 3.5 9891244
18:00−11wsw238420 0.0 99036
21:00−12ene019557 0.1 99121